Location: ??
(35.5052°N, 139.7262°E)
Time: 02:03:13
(UTC+00:00)

Cosmos 1459 Rocket - Pass Details

Date: 20 June 2021
Orbit: 937 x 1000 km, 83.0° (Epoch: 26 July)

Event Time Altitude Azimuth Distance (km) Brightness Sun altitude
Rises 12:09:25 0° 350° (N) 3,602 8.0 -20.8°
Reaches altitude 10° 12:11:54 10° 349° (NNW) 2,654 7.2 -21.1°
Maximum altitude 12:17:55 70° 267° (W) 996 4.1 -21.8°
Enters shadow 12:20:54 31° 191° (S) 1,580 4.7 -22.2°
